Location: Alma
(34.4195°N, 97.6123°W)
Time: 09:27:41
(UTC+00:00)

Tiangong - Visible Passes

Search period start: 21 May 2024 00:00
Search period end: 31 May 2024 00:00
Orbit: 372 x 375 km, 41.5° (Epoch: 20 May)

Date Brightness Start Highest point End Pass type
(mag) Time Alt. Az. Time Alt. Az. Time Alt. Az.
21 May -1.2 09:37:21 35° SE 09:37:21 35° SE 09:40:00 10° E visible
22 May -2.0 10:08:46 27° W 10:10:14 64° NNW 10:13:19 10° ENE visible
23 May -0.4 09:08:05 30° E 09:08:05 30° E 09:09:49 10° ENE visible
23 May -0.5 10:40:45 10° WNW 10:43:29 28° NNW 10:46:14 10° NE visible
24 May -1.3 09:39:11 37° NW 09:39:45 42° NNW 09:42:43 10° NE visible
25 May 0.7 08:38:14 17° ENE 08:38:14 17° ENE 08:39:03 10° ENE visible
25 May -0.2 10:10:14 10° WNW 10:12:49 24° N 10:15:25 10° NE visible
26 May -0.5 09:09:05 31° N 09:09:05 31° N 09:11:38 10° NE visible
26 May 0.2 10:43:27 10° NW 10:45:54 21° N 10:48:20 10° NE visible
27 May 0.1 09:39:50 13° NW 09:41:43 22° N 09:44:12 10° NE visible
28 May 0.5 08:38:34 21° NNE 08:38:34 21° NNE 08:40:07 10° NE visible
28 May 0.2 10:12:02 10° NW 10:14:34 22° N 10:17:04 10° ENE visible
29 May 0.2 09:09:11 18° NNW 09:10:09 21° N 09:12:36 10° NE visible
29 May -0.5 10:44:19 10° NW 10:47:11 34° NNE 10:50:03 10° E visible
30 May 1.3 08:07:51 12° NE 08:07:51 12° NE 08:08:11 10° NE visible
30 May 0.0 09:40:06 10° NW 09:42:44 25° N 09:45:22 10° ENE visible
